Home   Weather   Bambari   Past weeks

Flag for Central African Republic Past Weather in Bambari, Central African Republic — Yesterday and Last 2 Weeks

Now
82 °F

Fog.


Feels Like: 89 °F
Forecast: 66 / 95 °F
Wind: No wind

Location: Bangui Airport

Current Time: Dec 11, 2016 at 11:13:29 am

Latest Report: Dec 11, 2016 at 10:00 am


Visibility: 2 mi

Pressure: 29.89 "Hg

Humidity: 79%

Dew Point: 75 °F

Location of BambariLocation

Past Weather in Bambari — Graph

°F

Bambari Temperature Yesterday

Maximum temperature yesterday: 88 °F (at 4:00 pm)
Minimum temperature yesterday: 73 °F (at 12:00 am)
Average temperature yesterday: 77 °F

High & Low Weather Summary for the Past Weeks

 TemperatureHumidityPressure
High93 °F (Dec 8, 3:00 pm)100% (Nov 26, 9:00 pm)29.95 "Hg (Nov 26, 9:00 pm)
Low70 °F (Nov 27, 5:00 am)49% (Dec 8, 3:00 pm)29.68 "Hg (Nov 28, 3:00 pm)
Average79 °F87%29.84 "Hg
* Reported Nov 26 9:00 am — Dec 11 9:00 am, Bambari, Weather by CustomWeather, © 2016

Note: Actual official high and low records may vary slightly from our data, if they occured in-between our weather recording intervals... More about our weather records

Advertising

Bambari Weather History for the Previous 24 Hours

Scroll right to see more
 ConditionsComfort  
Time TempWeatherWind HumidityBarometerVisibility
9:00 am
Sun, Dec 11
73 °FFog.1 mph100%29.89 "Hg1 mi
8:00 am72 °FFog.3 mph100%29.92 "Hg1 mi
7:00 am72 °FFog.3 mph100%29.89 "Hg0 mi
6:00 am72 °FFog.2 mph100%29.86 "Hg0 mi
5:00 am72 °FFog.No wind100%29.86 "Hg0 mi
4:00 am72 °FFog.No wind100%29.83 "Hg1 mi
3:00 am72 °FPassing clouds.No wind100%29.83 "Hg4 mi
2:00 am72 °FPassing clouds.No wind100%29.83 "Hg4 mi
1:00 am72 °FPassing clouds.No wind100%29.86 "Hg4 mi
12:00 am72 °FPassing clouds.No wind100%29.86 "Hg4 mi
11:00 pm
Sat, Dec 10
73 °FPassing clouds.5 mph94%29.86 "Hg4 mi
10:00 pm73 °FPassing clouds.3 mph100%29.86 "Hg4 mi
9:00 pm75 °FPassing clouds.2 mph94%29.86 "Hg4 mi
8:00 pm75 °FPassing clouds.2 mph94%29.83 "Hg4 mi
7:00 pm77 °FPassing clouds.3 mph89%29.83 "Hg4 mi
6:00 pm81 °FPassing clouds.2 mph84%29.83 "Hg4 mi
5:00 pm82 °FPassing clouds.2 mph79%29.80 "Hg5 mi
4:00 pm88 °FPassing clouds.No wind62%29.80 "HgN/A
3:00 pm86 °FScattered clouds.No wind66%29.80 "HgN/A
2:00 pm84 °FPartly sunny.3 mph70%29.83 "HgN/A
1:00 pm82 °FPartly sunny.3 mph74%29.86 "HgN/A
12:00 pm81 °FPartly sunny.2 mph79%29.86 "HgN/A
11:00 am81 °FPartly sunny.3 mph79%29.89 "HgN/A
Weather by CustomWeather, © 2016

See weather overviewHow to use our weather pages